| time (UTC) | temp C | wind direction | speed KPH | gust KPH | rain 1hr cm | rain 24hr cm | rain mn cm | humidity % | barometer mb |
| 20260904071513 | 27 | 219 | 1.6 | 6.4 | 0.00 | 0.00 | 0.00 | 78 | 1012.1 |
| 20260904071013 | 27 | 207 | 1.6 | 6.4 | 0.00 | 0.00 | 0.00 | 78 | 1012.1 |
| 20260904070013 | 27 | 108 | 3.2 | 9.7 | 0.00 | 0.00 | 0.00 | 78 | 1012.3 |
| 20260904065513 | 27 | 152 | 3.2 | 9.7 | 0.00 | 0.00 | 0.00 | 78 | 1012.3 |
| 20260904065013 | 27 | 165 | 1.6 | 9.7 | 0.00 | 0.00 | 0.00 | 78 | 1012.3 |
| 20260904064513 | 27 | 173 | 4.8 | 4.8 | 0.00 | 0.00 | 0.00 | 78 | 1012.3 |
| 20260904063513 | 27 | 113 | 0.0 | 4.8 | 0.00 | 0.00 | 0.00 | 77 | 1012.3 |
| 20260904063013 | 27 | 117 | 4.8 | 6.4 | 0.00 | 0.00 | 0.00 | 77 | 1012.3 |
| 20260904062512 | 27 | 127 | 0.0 | 6.4 | 0.00 | 0.00 | 0.00 | 77 | 1012.3 |
| 20260904062012 | 27 | 212 | 3.2 | 8.0 | 0.00 | 0.00 | 0.00 | 77 | 1012.2 |
| 20260904061512 | 27 | 161 | 6.4 | 8.0 | 0.00 | 0.00 | 0.00 | 77 | 1012.2 |
| 20260904060012 | 27 | 134 | 6.4 | 6.4 | 0.00 | 0.00 | 0.00 | 76 | 1012.3 |
| 20260904055512 | 27 | 223 | 0.0 | 8.0 | 0.00 | 0.00 | 0.00 | 76 | 1012.1 |
| 20260904055012 | 27 | 238 | 3.2 | 8.0 | 0.00 | 0.00 | 0.00 | 76 | 1012.2 |
| 20260904054512 | 27 | 143 | 1.6 | 6.4 | 0.00 | 0.00 | 0.00 | 76 | 1012.1 |
| 20260904054012 | 27 | 116 | 1.6 | 12.9 | 0.00 | 0.00 | 0.00 | 76 | 1012.1 |
| 20260904053512 | 28 | 260 | 1.6 | 14.5 | 0.00 | 0.00 | 0.00 | 76 | 1012.0 |
| 20260904052011 | 28 | 205 | 6.4 | 16.1 | 0.00 | 0.00 | 0.00 | 75 | 1012.0 |
| 20260904051012 | 28 | 140 | 0.0 | 6.4 | 0.00 | 0.00 | 0.00 | 75 | 1011.9 |
| 20260904050011 | 28 | 138 | 8.0 | 8.0 | 0.00 | 0.00 | 0.00 | 75 | 1011.9 |
| 20260904045511 | 28 | 157 | 4.8 | 6.4 | 0.00 | 0.00 | 0.00 | 75 | 1011.9 |
| 20260904045011 | 28 | 126 | 4.8 | 6.4 | 0.00 | 0.00 | 0.00 | 75 | 1011.9 |
| 20260904044511 | 28 | 213 | 3.2 | 6.4 | 0.00 | 0.00 | 0.00 | 75 | 1012.0 |
| 20260904043511 | 28 | 126 | 3.2 | 12.9 | 0.00 | 0.00 | 0.00 | 74 | 1011.8 |
| 20260904043011 | 28 | 153 | 1.6 | 12.9 | 0.00 | 0.00 | 0.00 | 74 | 1011.9 |
| 20260904042511 | 28 | 143 | 1.6 | 8.0 | 0.00 | 0.00 | 0.00 | 74 | 1011.9 |
| 20260904042011 | 28 | 138 | 0.0 | 9.7 | 0.00 | 0.00 | 0.00 | 74 | 1011.9 |
| 20260904041511 | 28 | 49 | 1.6 | 17.7 | 0.00 | 0.00 | 0.00 | 74 | 1011.9 |
| 20260904041011 | 28 | 129 | 8.0 | 17.7 | 0.00 | 0.00 | 0.00 | 73 | 1011.9 |
| 20260904040511 | 28 | 122 | 6.4 | 16.1 | 0.00 | 0.00 | 0.00 | 73 | 1011.8 |
| 20260904040011 | 28 | 277 | 1.6 | 9.7 | 0.00 | 0.00 | 0.00 | 73 | 1011.8 |
| 20260904035511 | 28 | 150 | 4.8 | 14.5 | 0.00 | 0.00 | 0.00 | 73 | 1011.6 |
| 20260904034511 | 28 | 115 | 4.8 | 12.9 | 0.00 | 0.00 | 0.00 | 73 | 1011.8 |
| 20260904034011 | 28 | 167 | 6.4 | 12.9 | 0.00 | 0.00 | 0.00 | 72 | 1011.8 |
| 20260904033510 | 28 | 136 | 1.6 | 8.0 | 0.00 | 0.00 | 0.00 | 72 | 1011.7 |
| 20260904033010 | 28 | 134 | 8.0 | 8.0 | 0.00 | 0.00 | 0.00 | 72 | 1011.6 |
| 20260904032510 | 28 | 110 | 1.6 | 6.4 | 0.00 | 0.00 | 0.00 | 71 | 1011.6 |
| 20260904032011 | 28 | 135 | 6.4 | 19.3 | 0.00 | 0.00 | 0.00 | 71 | 1011.5 |
| 20260904030511 | 28 | 115 | 3.2 | 9.7 | 0.00 | 0.00 | 0.00 | 70 | 1011.5 |
| 20260904030010 | 28 | 98 | 1.6 | 12.9 | 0.00 | 0.00 | 0.00 | 70 | 1011.3 |
| 20260904025010 | 29 | 96 | 9.7 | 14.5 | 0.00 | 0.00 | 0.00 | 69 | 1011.1 |
| 20260904024510 | 29 | 119 | 1.6 | 14.5 | 0.00 | 0.00 | 0.00 | 69 | 1011.2 |
| 20260904024010 | 29 | 86 | 3.2 | 14.5 | 0.00 | 0.00 | 0.00 | 68 | 1011.2 |
| 20260904023510 | 29 | 142 | 1.6 | 9.7 | 0.00 | 0.00 | 0.00 | 68 | 1011.2 |
| 20260904023010 | 29 | 111 | 4.8 | 9.7 | 0.00 | 0.00 | 0.00 | 68 | 1011.1 |
| 20260904022510 | 29 | 120 | 1.6 | 14.5 | 0.00 | 0.00 | 0.00 | 67 | 1011.0 |
| 20260904022009 | 29 | 95 | 4.8 | 14.5 | 0.00 | 0.00 | 0.00 | 67 | 1010.9 |
| 20260904021509 | 30 | 141 | 6.4 | 16.1 | 0.00 | 0.00 | 0.00 | 66 | 1011.0 |
| 20260904021010 | 30 | 121 | 11.3 | 16.1 | 0.00 | 0.00 | 0.00 | 66 | 1010.9 |
| 20260904020509 | 30 | 132 | 8.0 | 12.9 | 0.00 | 0.00 | 0.00 | 65 | 1010.9 |
| 20260904020009 | 30 | 157 | 12.9 | 12.9 | 0.00 | 0.00 | 0.00 | 65 | 1010.8 |
| 20260904015509 | 30 | 68 | 1.6 | 12.9 | 0.00 | 0.00 | 0.00 | 65 | 1010.6 |
| 20260904015009 | 30 | 135 | 4.8 | 12.9 | 0.00 | 0.00 | 0.00 | 64 | 1010.4 |
| 20260904014509 | 30 | 112 | 1.6 | 11.3 | 0.00 | 0.00 | 0.00 | 64 | 1010.2 |
| 20260904014009 | 30 | 134 | 11.3 | 16.1 | 0.00 | 0.00 | 0.00 | 64 | 1010.2 |
| 20260904013509 | 30 | 170 | 8.0 | 16.1 | 0.00 | 0.00 | 0.00 | 63 | 1010.1 |
| 20260904013009 | 30 | 133 | 11.3 | 16.1 | 0.00 | 0.00 | 0.00 | 63 | 1010.1 |
| 20260904012508 | 30 | 104 | 3.2 | 16.1 | 0.00 | 0.00 | 0.00 | 63 | 1010.0 |
| 20260904011508 | 30 | 128 | 8.0 | 12.9 | 0.00 | 0.00 | 0.00 | 62 | 1010.0 |
| 20260904011009 | 30 | 123 | 1.6 | 17.7 | 0.00 | 0.00 | 0.00 | 62 | 1010.0 |
| 20260904010008 | 31 | 202 | 11.3 | 16.1 | 0.00 | 0.00 | 0.00 | 61 | 1010.1 |
| 20260904005508 | 31 | 108 | 16.1 | 16.1 | 0.00 | 0.00 | 0.00 | 61 | 1010.0 |
| 20260904005009 | 31 | 124 | 3.2 | 25.7 | 0.00 | 0.00 | 0.00 | 60 | 1010.0 |
| 20260904004508 | 31 | 101 | 9.7 | 25.7 | 0.00 | 0.00 | 0.00 | 60 | 1010.1 |
| 20260904004008 | 31 | 132 | 1.6 | 27.4 | 0.00 | 0.00 | 0.00 | 60 | 1010.1 |
| 20260904003508 | 31 | 136 | 11.3 | 27.4 | 0.00 | 0.00 | 0.00 | 60 | 1010.0 |
| 20260904003008 | 31 | 90 | 9.7 | 22.5 | 0.00 | 0.00 | 0.00 | 59 | 1009.9 |
| 20260904002508 | 31 | 156 | 17.7 | 17.7 | 0.00 | 0.00 | 0.00 | 59 | 1009.9 |
| 20260904002008 | 32 | 170 | 9.7 | 17.7 | 0.00 | 0.00 | 0.00 | 59 | 1010.1 |
| 20260904001508 | 32 | 130 | 6.4 | 19.3 | 0.00 | 0.00 | 0.00 | 59 | 1010.0 |
| 20260904001008 | 32 | 179 | 6.4 | 19.3 | 0.00 | 0.00 | 0.00 | 59 | 1010.0 |
| 20260904000508 | 32 | 256 | 4.8 | 20.9 | 0.00 | 0.00 | 0.00 | 58 | 1009.9 |
| 20260903235508 | 32 | 114 | 3.2 | 14.5 | 0.00 | 0.00 | 0.00 | 58 | 1009.8 |
| 20260903235007 | 32 | 147 | 8.0 | 24.1 | 0.00 | 0.00 | 0.00 | 58 | 1009.8 |
| 20260903234507 | 32 | 132 | 4.8 | 24.1 | 0.00 | 0.00 | 0.00 | 58 | 1009.8 |
| 20260903234008 | 32 | 121 | 1.6 | 14.5 | 0.00 | 0.00 | 0.00 | 57 | 1009.8 |
| 20260903233508 | 32 | 138 | 4.8 | 12.9 | 0.00 | 0.00 | 0.00 | 57 | 1009.7 |
| 20260903233007 | 33 | 209 | 4.8 | 14.5 | 0.00 | 0.00 | 0.00 | 57 | 1009.6 |
| 20260903232507 | 33 | 141 | 14.5 | 22.5 | 0.00 | 0.00 | 0.00 | 56 | 1009.5 |
| 20260903232008 | 33 | 195 | 8.0 | 22.5 | 0.00 | 0.00 | 0.00 | 55 | 1009.6 |
| 20260903231508 | 33 | 123 | 3.2 | 16.1 | 0.00 | 0.00 | 0.00 | 57 | 1009.6 |
| 20260903231007 | 33 | 120 | 11.3 | 20.9 | 0.00 | 0.00 | 0.00 | 57 | 1009.5 |
| 20260903225507 | 33 | 123 | 8.0 | 19.3 | 0.00 | 0.00 | 0.00 | 56 | 1009.4 |
| 20260903225008 | 33 | 61 | 12.9 | 20.9 | 0.00 | 0.00 | 0.00 | 56 | 1009.3 |
| 20260903224507 | 33 | 112 | 11.3 | 20.9 | 0.00 | 0.00 | 0.00 | 55 | 1009.3 |
| 20260903224007 | 34 | 83 | 19.3 | 20.9 | 0.00 | 0.00 | 0.00 | 55 | 1009.2 |
| 20260903223007 | 35 | 128 | 17.7 | 24.1 | 0.00 | 0.00 | 0.00 | 49 | 1009.2 |
| 20260903222507 | 35 | 163 | 6.4 | 25.7 | 0.00 | 0.00 | 0.00 | 47 | 1009.1 |
| 20260903222007 | 35 | 156 | 11.3 | 25.7 | 0.00 | 0.00 | 0.00 | 47 | 1009.0 |
| 20260903221507 | 35 | 80 | 3.2 | 24.1 | 0.00 | 0.00 | 0.00 | 47 | 1008.9 |
| 20260903221007 | 35 | 109 | 6.4 | 24.1 | 0.00 | 0.00 | 0.00 | 47 | 1008.9 |
| 20260903220006 | 35 | 86 | 12.9 | 12.9 | 0.00 | 0.00 | 0.00 | 47 | 1008.9 |
| 20260903215507 | 36 | 148 | 8.0 | 11.3 | 0.00 | 0.00 | 0.00 | 46 | 1009.0 |
| 20260903215006 | 36 | 360 | 3.2 | 19.3 | 0.00 | 0.00 | 0.00 | 46 | 1009.0 |
| 20260903214006 | 36 | 86 | 12.9 | 22.5 | 0.00 | 0.00 | 0.00 | 45 | 1009.0 |
| 20260903213507 | 37 | 100 | 4.8 | 24.1 | 0.00 | 0.00 | 0.00 | 45 | 1009.0 |
| 20260903212506 | 37 | 101 | 3.2 | 16.1 | 0.00 | 0.00 | 0.00 | 43 | 1008.9 |
| 20260903212006 | 37 | 155 | 4.8 | 16.1 | 0.00 | 0.00 | 0.00 | 44 | 1008.9 |
| 20260903211506 | 37 | 169 | 6.4 | 6.4 | 0.00 | 0.00 | 0.00 | 44 | 1008.9 |
| 20260903211006 | 37 | 192 | 1.6 | 4.8 | 0.00 | 0.00 | 0.00 | 45 | 1009.0 |
| 20260903210506 | 37 | 111 | 1.6 | 6.4 | 0.00 | 0.00 | 0.00 | 45 | 1009.2 |
| 20260903205506 | 37 | 141 | 1.6 | 19.3 | 0.00 | 0.00 | 0.00 | 45 | 1009.2 |
| 20260903205006 | 37 | 126 | 6.4 | 19.3 | 0.00 | 0.00 | 0.00 | 45 | 1009.4 |
| 20260903204506 | 37 | 96 | 1.6 | 11.3 | 0.00 | 0.00 | 0.00 | 46 | 1009.3 |
| 20260903204006 | 37 | 130 | 11.3 | 12.9 | 0.00 | 0.00 | 0.00 | 46 | 1009.5 |
| 20260903203506 | 37 | 199 | 8.0 | 12.9 | 0.00 | 0.00 | 0.00 | 46 | 1009.5 |
| 20260903203006 | 37 | 188 | 1.6 | 3.2 | 0.00 | 0.00 | 0.00 | 46 | 1009.6 |
| 20260903202506 | 37 | 134 | 1.6 | 4.8 | 0.00 | 0.00 | 0.00 | 47 | 1009.7 |
| 20260903202006 | 37 | 153 | 4.8 | 4.8 | 0.00 | 0.00 | 0.00 | 47 | 1009.8 |
| 20260903201506 | 37 | 90 | 1.6 | 9.7 | 0.00 | 0.00 | 0.00 | 47 | 1009.8 |
| 20260903201006 | 37 | 72 | 1.6 | 19.3 | 0.00 | 0.00 | 0.00 | 47 | 1009.8 |
| 20260903200506 | 37 | 159 | 8.0 | 19.3 | 0.00 | 0.00 | 0.00 | 47 | 1009.8 |
| 20260903195505 | 37 | 112 | 11.3 | 20.9 | 0.00 | 0.00 | 0.00 | 47 | 1010.0 |
| 20260903195006 | 37 | 119 | 17.7 | 20.9 | 0.00 | 0.00 | 0.00 | 47 | 1010.0 |
| 20260903194506 | 37 | 172 | 3.2 | 12.9 | 0.00 | 0.00 | 0.00 | 47 | 1010.0 |
| 20260903194005 | 37 | 130 | 6.4 | 12.9 | 0.00 | 0.00 | 0.00 | 47 | 1010.1 |
| 20260903193505 | 37 | 86 | 6.4 | 6.4 | 0.00 | 0.00 | 0.00 | 48 | 1010.2 |
| 20260903193005 | 37 | 284 | 3.2 | 12.9 | 0.00 | 0.00 | 0.00 | 48 | 1010.3 |
| 20260903192505 | 37 | 138 | 12.9 | 12.9 | 0.00 | 0.00 | 0.00 | 49 | 1010.4 |
| 20260903191005 | 36 | 19 | 4.8 | 17.7 | 0.00 | 0.00 | 0.00 | 50 | 1010.5 |
| 20260903190505 | 36 | 148 | 9.7 | 17.7 | 0.00 | 0.00 | 0.00 | 50 | 1010.6 |
| 20260903190005 | 36 | 142 | 9.7 | 11.3 | 0.00 | 0.00 | 0.00 | 51 | 1010.8 |
| 20260903185505 | 36 | 119 | 1.6 | 4.8 | 0.00 | 0.00 | 0.00 | 51 | 1010.8 |
| 20260903184004 | 36 | 140 | 6.4 | 14.5 | 0.00 | 0.00 | 0.00 | 53 | 1011.1 |
| 20260903183504 | 35 | 297 | 3.2 | 6.4 | 0.00 | 0.00 | 0.00 | 54 | 1011.2 |
| 20260903183005 | 35 | 324 | 3.2 | 14.5 | 0.00 | 0.00 | 0.00 | 54 | 1011.3 |
| 20260903182505 | 35 | 253 | 6.4 | 14.5 | 0.00 | 0.00 | 0.00 | 55 | 1011.3 |
| 20260903182004 | 35 | 137 | 11.3 | 14.5 | 0.00 | 0.00 | 0.00 | 56 | 1011.3 |
| 20260903181504 | 35 | 170 | 6.4 | 12.9 | 0.00 | 0.00 | 0.00 | 56 | 1011.5 |
| 20260903180504 | 35 | 194 | 3.2 | 12.9 | 0.00 | 0.00 | 0.00 | 56 | 1011.6 |
| 20260903180004 | 34 | 107 | 6.4 | 8.0 | 0.00 | 0.00 | 0.00 | 57 | 1011.7 |
| 20260903175504 | 35 | 244 | 6.4 | 8.0 | 0.00 | 0.00 | 0.00 | 56 | 1011.7 |
| 20260903175004 | 34 | 169 | 1.6 | 17.7 | 0.00 | 0.00 | 0.00 | 57 | 1011.8 |
| 20260903174504 | 34 | 155 | 12.9 | 17.7 | 0.00 | 0.00 | 0.00 | 57 | 1011.8 |
| 20260903174004 | 34 | 205 | 6.4 | 8.0 | 0.00 | 0.00 | 0.00 | 59 | 1011.8 |
| 20260903173504 | 34 | 270 | 3.2 | 14.5 | 0.00 | 0.00 | 0.00 | 59 | 1011.9 |
| 20260903173004 | 34 | 104 | 12.9 | 14.5 | 0.00 | 0.00 | 0.00 | 59 | 1011.9 |
| 20260903172504 | 34 | 290 | 3.2 | 11.3 | 0.00 | 0.00 | 0.00 | 60 | 1012.0 |
| 20260903172004 | 33 | 134 | 6.4 | 6.4 | 0.00 | 0.00 | 0.00 | 61 | 1012.0 |
| 20260903171503 | 33 | 325 | 3.2 | 14.5 | 0.00 | 0.00 | 0.00 | 61 | 1012.2 |
| 20260903171003 | 33 | 180 | 8.0 | 16.1 | 0.00 | 0.00 | 0.00 | 61 | 1012.2 |
| 20260903170033 | 33 | 216 | 6.4 | 27.4 | 0.00 | 0.00 | 0.00 | 62 | 1012.2 |
| 20260903165503 | 33 | 233 | 3.2 | 8.0 | 0.00 | 0.00 | 0.00 | 63 | 1012.3 |
| 20260903165003 | 33 | 115 | 6.4 | 16.1 | 0.00 | 0.00 | 0.00 | 63 | 1012.3 |
| 20260903164503 | 33 | 252 | 6.4 | 16.1 | 0.00 | 0.00 | 0.00 | 63 | 1012.4 |
| 20260903164004 | 32 | 148 | 6.4 | 12.9 | 0.00 | 0.00 | 0.00 | 64 | 1012.4 |
| 20260903163533 | 32 | 239 | 4.8 | 12.9 | 0.00 | 0.00 | 0.00 | 64 | 1012.4 |
| 20260903163033 | 32 | 171 | 3.2 | 12.9 | 0.00 | 0.00 | 0.00 | 65 | 1012.5 |
| 20260903162033 | 32 | 205 | 1.6 | 12.9 | 0.00 | 0.00 | 0.00 | 67 | 1012.5 |
| 20260903161033 | 32 | 292 | 4.8 | 16.1 | 0.00 | 0.00 | 0.00 | 68 | 1012.6 |
| 20260903160533 | 32 | 119 | 3.2 | 12.9 | 0.00 | 0.00 | 0.00 | 69 | 1012.4 |
| 20260903160033 | 31 | 281 | 0.0 | 9.7 | 0.00 | 0.00 | 0.00 | 69 | 1012.3 |
| 20260903155533 | 31 | 209 | 3.2 | 9.7 | 0.00 | 0.00 | 0.00 | 69 | 1012.4 |
| 20260903154533 | 31 | 254 | 1.6 | 11.3 | 0.00 | 0.00 | 0.00 | 70 | 1012.5 |
| 20260903154032 | 31 | 223 | 4.8 | 17.7 | 0.00 | 0.00 | 0.00 | 71 | 1012.4 |
| 20260903153532 | 30 | 196 | 4.8 | 17.7 | 0.00 | 0.00 | 0.00 | 72 | 1012.4 |
| 20260903152032 | 30 | 171 | 3.2 | 8.0 | 0.00 | 0.00 | 0.00 | 73 | 1012.4 |
| 20260903151532 | 30 | 274 | 4.8 | 8.0 | 0.00 | 0.00 | 0.00 | 74 | 1012.5 |
| 20260903151032 | 30 | 293 | 1.6 | 11.3 | 0.00 | 0.00 | 0.00 | 74 | 1012.5 |
| 20260903150532 | 30 | 135 | 4.8 | 19.3 | 0.00 | 0.00 | 0.00 | 73 | 1012.4 |
| 20260903150032 | 30 | 234 | 8.0 | 19.3 | 0.00 | 0.00 | 0.00 | 73 | 1012.4 |
| 20260903145532 | 30 | 306 | 4.8 | 12.9 | 0.00 | 0.00 | 0.00 | 74 | 1012.4 |
| 20260903145032 | 30 | 187 | 3.2 | 11.3 | 0.00 | 0.00 | 0.00 | 74 | 1012.4 |
| 20260903144532 | 30 | 267 | 6.4 | 11.3 | 0.00 | 0.00 | 0.00 | 74 | 1012.4 |
| 20260903144032 | 30 | 28 | 4.8 | 11.3 | 0.00 | 0.00 | 0.00 | 75 | 1012.4 |
| 20260903143532 | 30 | 162 | 6.4 | 11.3 | 0.00 | 0.00 | 0.00 | 75 | 1012.3 |
| 20260903143032 | 30 | 212 | 6.4 | 14.5 | 0.00 | 0.00 | 0.00 | 75 | 1012.3 |
| 20260903142532 | 29 | 171 | 8.0 | 14.5 | 0.00 | 0.00 | 0.00 | 75 | 1012.2 |
| 20260903142031 | 29 | 270 | 3.2 | 11.3 | 0.00 | 0.00 | 0.00 | 76 | 1012.3 |
| 20260903141532 | 29 | 236 | 3.2 | 20.9 | 0.00 | 0.00 | 0.00 | 76 | 1012.3 |
| 20260903141031 | 29 | 226 | 8.0 | 20.9 | 0.00 | 0.00 | 0.00 | 76 | 1012.4 |
| 20260903140531 | 28 | 309 | 3.2 | 16.1 | 0.00 | 0.00 | 0.00 | 77 | 1012.4 |
| 20260903140031 | 28 | 128 | 3.2 | 8.0 | 0.00 | 0.00 | 0.00 | 77 | 1012.4 |
| 20260903135031 | 28 | 269 | 1.6 | 11.3 | 0.00 | 0.00 | 0.00 | 78 | 1012.5 |
| 20260903134531 | 28 | 307 | 3.2 | 14.5 | 0.00 | 0.00 | 0.00 | 78 | 1012.5 |
| 20260903134031 | 28 | 159 | 8.0 | 14.5 | 0.00 | 0.00 | 0.00 | 78 | 1012.5 |
| 20260903133031 | 28 | 236 | 4.8 | 11.3 | 0.00 | 0.00 | 0.00 | 79 | 1012.5 |
| 20260903132531 | 28 | 228 | 3.2 | 11.3 | 0.00 | 0.00 | 0.00 | 79 | 1012.6 |
| 20260903132031 | 28 | 130 | 4.8 | 11.3 | 0.00 | 0.00 | 0.00 | 79 | 1012.6 |
| 20260903131531 | 28 | 212 | 0.0 | 6.4 | 0.00 | 0.00 | 0.00 | 80 | 1012.5 |
| 20260903131031 | 28 | 201 | 3.2 | 8.0 | 0.00 | 0.00 | 0.00 | 79 | 1012.5 |
| 20260903130531 | 28 | 226 | 6.4 | 8.0 | 0.00 | 0.00 | 0.00 | 80 | 1012.5 |
| 20260903130031 | 27 | 247 | 1.6 | 8.0 | 0.00 | 0.00 | 0.00 | 80 | 1012.5 |
| 20260903125531 | 27 | 200 | 3.2 | 8.0 | 0.00 | 0.00 | 0.00 | 80 | 1012.5 |
| 20260903124530 | 27 | 150 | 0.0 | 8.0 | 0.00 | 0.00 | 0.00 | 80 | 1012.4 |
| 20260903124031 | 27 | 184 | 4.8 | 8.0 | 0.00 | 0.00 | 0.00 | 80 | 1012.3 |
| 20260903123531 | 27 | 223 | 3.2 | 4.8 | 0.00 | 0.00 | 0.00 | 80 | 1012.3 |
| 20260903123030 | 27 | 161 | 3.2 | 4.8 | 0.00 | 0.00 | 0.00 | 80 | 1012.2 |
| 20260903122530 | 27 | 240 | 3.2 | 8.0 | 0.00 | 0.00 | 0.00 | 80 | 1012.2 |
| 20260903122031 | 27 | 199 | 4.8 | 8.0 | 0.00 | 0.00 | 0.00 | 80 | 1012.2 |
| 20260903121031 | 27 | 228 | 4.8 | 9.7 | 0.00 | 0.00 | 0.00 | 80 | 1012.0 |
| 20260903120530 | 27 | 176 | 0.0 | 9.7 | 0.00 | 0.00 | 0.00 | 80 | 1012.1 |
| 20260903120030 | 27 | 205 | 3.2 | 9.7 | 0.00 | 0.00 | 0.00 | 80 | 1012.1 |
| 20260903115530 | 27 | 283 | 3.2 | 6.4 | 0.00 | 0.00 | 0.00 | 80 | 1012.1 |
| 20260903115030 | 27 | 212 | 1.6 | 8.0 | 0.00 | 0.00 | 0.00 | 80 | 1012.1 |
| 20260903114530 | 27 | 159 | 6.4 | 8.0 | 0.00 | 0.00 | 0.00 | 80 | 1012.1 |
| 20260903114030 | 27 | 210 | 3.2 | 9.7 | 0.00 | 0.00 | 0.00 | 80 | 1012.0 |
| 20260903113530 | 27 | 296 | 1.6 | 9.7 | 0.00 | 0.00 | 0.00 | 80 | 1011.9 |
| 20260903112530 | 27 | 208 | 4.8 | 8.0 | 0.00 | 0.00 | 0.00 | 80 | 1011.9 |
| 20260903112030 | 27 | 205 | 4.8 | 8.0 | 0.00 | 0.00 | 0.00 | 80 | 1011.9 |
| 20260903111530 | 27 | 210 | 0.0 | 6.4 | 0.00 | 0.00 | 0.00 | 80 | 1011.9 |
| 20260903111030 | 27 | 169 | 6.4 | 6.4 | 0.00 | 0.00 | 0.00 | 80 | 1011.9 |
| 20260903110030 | 27 | 292 | 0.0 | 8.0 | 0.00 | 0.00 | 0.00 | 80 | 1012.0 |
| 20260903105530 | 27 | 143 | 4.8 | 8.0 | 0.00 | 0.00 | 0.00 | 80 | 1012.0 |
| 20260903105030 | 27 | 180 | 4.8 | 8.0 | 0.00 | 0.00 | 0.00 | 80 | 1011.9 |
| 20260903104530 | 27 | 234 | 6.4 | 8.0 | 0.00 | 0.00 | 0.00 | 80 | 1011.9 |
| 20260903104029 | 27 | 211 | 3.2 | 11.3 | 0.00 | 0.00 | 0.00 | 80 | 1011.8 |
| 20260903103529 | 27 | 148 | 1.6 | 11.3 | 0.00 | 0.00 | 0.00 | 80 | 1011.7 |
| 20260903103029 | 27 | 125 | 0.0 | 11.3 | 0.00 | 0.00 | 0.00 | 80 | 1011.7 |
| 20260903102529 | 27 | 162 | 1.6 | 11.3 | 0.00 | 0.00 | 0.00 | 80 | 1011.7 |
| 20260903102029 | 27 | 198 | 4.8 | 6.4 | 0.00 | 0.00 | 0.00 | 80 | 1011.8 |
| 20260903100529 | 27 | 130 | 4.8 | 6.4 | 0.00 | 0.00 | 0.00 | 80 | 1011.7 |
| 20260903100029 | 27 | 203 | 3.2 | 6.4 | 0.00 | 0.00 | 0.00 | 80 | 1011.7 |
| 20260903095029 | 27 | 165 | 1.6 | 6.4 | 0.00 | 0.00 | 0.00 | 80 | 1011.8 |
| 20260903094529 | 27 | 194 | 4.8 | 6.4 | 0.00 | 0.00 | 0.00 | 80 | 1011.9 |
| 20260903094029 | 27 | 259 | 1.6 | 6.4 | 0.00 | 0.00 | 0.00 | 80 | 1011.9 |
| 20260903093529 | 27 | 120 | 3.2 | 6.4 | 0.00 | 0.00 | 0.00 | 80 | 1011.9 |
| 20260903093029 | 27 | 159 | 0.0 | 6.4 | 0.00 | 0.00 | 0.00 | 80 | 1012.0 |
| 20260903092029 | 27 | 209 | 3.2 | 4.8 | 0.00 | 0.00 | 0.00 | 79 | 1012.0 |
| 20260903091529 | 27 | 202 | 1.6 | 3.2 | 0.00 | 0.00 | 0.00 | 79 | 1012.1 |
| 20260903091030 | 27 | 165 | 0.0 | 4.8 | 0.00 | 0.00 | 0.00 | 79 | 1011.9 |
| 20260903090529 | 27 | 209 | 3.2 | 11.3 | 0.00 | 0.00 | 0.00 | 79 | 1012.1 |
| 20260903090028 | 27 | 129 | 11.3 | 11.3 | 0.00 | 0.00 | 0.00 | 79 | 1012.1 |
| 20260903085528 | 27 | 208 | 6.4 | 9.7 | 0.00 | 0.00 | 0.00 | 79 | 1012.1 |
| 20260903085028 | 27 | 202 | 1.6 | 8.0 | 0.00 | 0.00 | 0.00 | 79 | 1012.1 |
| 20260903084528 | 27 | 203 | 4.8 | 8.0 | 0.00 | 0.00 | 0.00 | 78 | 1012.1 |
| 20260903084028 | 27 | 50 | 3.2 | 11.3 | 0.00 | 0.00 | 0.00 | 78 | 1012.0 |
| 20260903083528 | 27 | 161 | 1.6 | 11.3 | 0.00 | 0.00 | 0.00 | 78 | 1012.0 |
| 20260903083028 | 27 | 169 | 1.6 | 4.8 | 0.00 | 0.00 | 0.00 | 78 | 1012.0 |
| 20260903082528 | 28 | 213 | 1.6 | 9.7 | 0.00 | 0.00 | 0.00 | 78 | 1012.0 |
| 20260903082028 | 28 | 241 | 3.2 | 9.7 | 0.00 | 0.00 | 0.00 | 78 | 1012.0 |
| 20260903081528 | 28 | 226 | 0.0 | 11.3 | 0.00 | 0.00 | 0.00 | 78 | 1012.0 |
| 20260903081028 | 28 | 113 | 0.0 | 11.3 | 0.00 | 0.00 | 0.00 | 77 | 1011.9 |
| 20260903080528 | 28 | 236 | 1.6 | 8.0 | 0.00 | 0.00 | 0.00 | 77 | 1012.0 |
| 20260903080028 | 28 | 217 | 6.4 | 8.0 | 0.00 | 0.00 | 0.00 | 77 | 1012.1 |
| 20260903074528 | 28 | 170 | 0.0 | 8.0 | 0.00 | 0.00 | 0.00 | 76 | 1012.2 |
| 20260903074028 | 28 | 128 | 0.0 | 8.0 | 0.00 | 0.00 | 0.00 | 76 | 1012.2 |
| 20260903073528 | 28 | 169 | 0.0 | 12.9 | 0.00 | 0.00 | 0.00 | 75 | 1012.3 |
| 20260903073027 | 28 | 141 | 1.6 | 12.9 | 0.00 | 0.00 | 0.00 | 75 | 1012.3 |
| 20260903072527 | 28 | 207 | 3.2 | 6.4 | 0.00 | 0.00 | 0.00 | 75 | 1012.3 |
| 20260903072027 | 28 | 155 | 0.0 | 6.4 | 0.00 | 0.00 | 0.00 | 75 | 1012.3 |